Location: Barcelona
(41.3829°N, 2.1774°E)
Time: 13:40:59
(UTC+00:00)

ISS - Pass Details

Date: 13 July 2024
Orbit: 410 x 424 km, 51.6° (Epoch: 14 July)

Event Time Altitude Azimuth Distance (km) Brightness Sun altitude
Rises 00:13:39 0° 309° (NW) 2,344 0.5 -26.7°
Reaches altitude 10° 00:16:08 10° 327° (NNW) 1,483 -0.3 -26.7°
Maximum altitude 00:18:40 20° 17° (NNE) 1,026 -1.1 -26.6°
Enters shadow 00:20:35 13° 59° (ENE) 1,308 -0.9 -26.6°
